28.03.2024;22:00;6408,000;
28.03.2024;20:00;6408,000;
28.03.2024;18:00;6408,000;
28.03.2024;16:00;6408,000;
28.03.2024;14:00;6408,000;
28.03.2024;12:00;6408,000;
28.03.2024;10:00;6408,000;
28.03.2024;08:00;6408,000;
28.03.2024;06:00;6408,000;
28.03.2024;04:00;6409,000;
28.03.2024;02:00;6409,000;
28.03.2024;00:00;6409,000;
27.03.2024;22:00;6409,000;
27.03.2024;20:00;6409,000;
27.03.2024;18:00;6409,000;
27.03.2024;16:00;6409,000;
27.03.2024;14:00;6410,000;
27.03.2024;12:00;6410,000;
27.03.2024;10:00;6410,000;
27.03.2024;08:00;6410,000;
27.03.2024;06:00;6410,000;
27.03.2024;04:00;6410,000;
27.03.2024;02:00;6410,000;
27.03.2024;00:00;6410,000;
26.03.2024;22:00;6410,000;
26.03.2024;20:00;6410,000;
26.03.2024;18:00;6410,000;
26.03.2024;16:00;6411,000;
26.03.2024;14:00;6411,000;
26.03.2024;12:00;6411,000;
26.03.2024;10:00;6411,000;
26.03.2024;08:00;6411,000;
26.03.2024;06:00;6411,000;
26.03.2024;04:00;6411,000;
26.03.2024;02:00;6411,000;
26.03.2024;00:00;6411,000;
25.03.2024;22:00;6412,000;
25.03.2024;20:00;6412,000;
25.03.2024;18:00;6412,000;
25.03.2024;16:00;6412,000;
25.03.2024;14:00;6412,000;
25.03.2024;12:00;6412,000;
25.03.2024;10:00;6412,000;
25.03.2024;08:00;6412,000;
25.03.2024;06:00;6412,000;
25.03.2024;04:00;6412,000;
25.03.2024;02:00;6412,000;
25.03.2024;00:00;6413,000;
24.03.2024;22:00;6413,000;
24.03.2024;20:00;6413,000;
24.03.2024;18:00;6413,000;
24.03.2024;16:00;6413,000;
24.03.2024;14:00;6413,000;
24.03.2024;12:00;6413,000;
24.03.2024;10:00;6413,000;
24.03.2024;08:00;6413,000;
24.03.2024;06:00;6413,000;
24.03.2024;04:00;6413,000;
24.03.2024;02:00;6413,000;
24.03.2024;00:00;6414,000;
23.03.2024;22:00;6414,000;
23.03.2024;20:00;6414,000;
23.03.2024;18:00;6414,000;
23.03.2024;16:00;6414,000;
23.03.2024;14:00;6414,000;
23.03.2024;12:00;6414,000;
23.03.2024;10:00;6414,000;
23.03.2024;08:00;6414,000;
23.03.2024;06:00;6414,000;
23.03.2024;04:00;6414,000;
23.03.2024;02:00;6415,000;
23.03.2024;00:00;6415,000;
22.03.2024;22:00;6415,000;
22.03.2024;20:00;6415,000;
22.03.2024;18:00;6415,000;
22.03.2024;16:00;6415,000;
22.03.2024;14:00;6415,000;
22.03.2024;12:00;6415,000;
22.03.2024;10:00;6415,000;
22.03.2024;08:00;6415,000;
22.03.2024;06:00;6416,000;
22.03.2024;04:00;6416,000;
22.03.2024;02:00;6416,000;
22.03.2024;00:00;6416,000;
21.03.2024;22:00;6416,000;
21.03.2024;20:00;6416,000;
21.03.2024;18:00;6416,000;
21.03.2024;16:00;6416,000;
21.03.2024;14:00;6416,000;
21.03.2024;12:00;6417,000;
21.03.2024;10:00;6417,000;
21.03.2024;08:00;6417,000;
21.03.2024;06:00;6417,000;
21.03.2024;04:00;6417,000;
21.03.2024;02:00;6417,000;
21.03.2024;00:00;6417,000;
20.03.2024;22:00;6417,000;
20.03.2024;20:00;6417,000;
20.03.2024;18:00;6417,000;
20.03.2024;16:00;6418,000;
20.03.2024;14:00;6418,000;
20.03.2024;12:00;6418,000;
20.03.2024;10:00;6418,000;
20.03.2024;08:00;6418,000;
20.03.2024;06:00;6418,000;
20.03.2024;04:00;6418,000;
20.03.2024;02:00;6418,000;
20.03.2024;00:00;6419,000;
19.03.2024;22:00;6419,000;
19.03.2024;20:00;6419,000;
19.03.2024;18:00;6419,000;
19.03.2024;16:00;6419,000;
19.03.2024;14:00;6419,000;
19.03.2024;12:00;6417,000;
19.03.2024;10:00;6418,000;
19.03.2024;08:00;6417,000;
19.03.2024;06:00;6418,000;
19.03.2024;04:00;6418,000;
19.03.2024;02:00;6418,000;
19.03.2024;00:00;6418,000;
18.03.2024;22:00;6418,000;
18.03.2024;20:00;6418,000;
18.03.2024;18:00;6418,000;
18.03.2024;16:00;6418,000;
18.03.2024;14:00;6418,000;
18.03.2024;12:00;6416,000;
18.03.2024;10:00;6416,000;
18.03.2024;08:00;6416,000;
18.03.2024;06:00;6417,000;
18.03.2024;04:00;6417,000;
18.03.2024;02:00;6417,000;
18.03.2024;00:00;6417,000;
17.03.2024;22:00;6417,000;
17.03.2024;20:00;6417,000;
17.03.2024;18:00;6417,000;
17.03.2024;16:00;6417,000;
17.03.2024;14:00;6417,000;
17.03.2024;12:00;6416,000;
17.03.2024;10:00;6412,000;
17.03.2024;08:00;6412,000;
17.03.2024;06:00;6412,000;
17.03.2024;04:00;6412,000;
17.03.2024;02:00;6412,000;
17.03.2024;00:00;6412,000;
16.03.2024;22:00;6411,000;
16.03.2024;20:00;6406,000;
16.03.2024;18:00;6406,000;
16.03.2024;16:00;0,000;
16.03.2024;14:00;0,000;
16.03.2024;12:00;0,000;
16.03.2024;10:00;0,000;
16.03.2024;08:00;0,000;
16.03.2024;06:00;0,000;
16.03.2024;04:00;0,000;
16.03.2024;02:00;0,000;
16.03.2024;00:00;6396,000;
15.03.2024;22:00;6396,000;
15.03.2024;20:00;6396,000;
15.03.2024;18:00;6396,000;
15.03.2024;16:00;6386,000;
15.03.2024;14:00;6386,000;
15.03.2024;12:00;6386,000;
15.03.2024;10:00;6376,000;
15.03.2024;08:00;6376,000;
15.03.2024;06:00;6376,000;
15.03.2024;04:00;6376,000;
15.03.2024;02:00;6376,000;
15.03.2024;00:00;6376,000;
14.03.2024;22:00;6376,000;
14.03.2024;20:00;6376,000;
14.03.2024;18:00;6376,000;
14.03.2024;16:00;6376,000;
14.03.2024;14:00;6376,000;
14.03.2024;12:00;6376,000;
14.03.2024;10:00;6372,000;
14.03.2024;08:00;6372,000;
14.03.2024;06:00;6372,000;
14.03.2024;04:00;6372,000;
14.03.2024;02:00;6372,000;
14.03.2024;00:00;6372,000;
13.03.2024;22:00;6372,000;
13.03.2024;20:00;6372,000;
13.03.2024;18:00;6372,000;
13.03.2024;16:00;6372,000;
13.03.2024;14:00;6372,000;
13.03.2024;12:00;6372,000;
13.03.2024;10:00;6372,000;
13.03.2024;08:00;6372,000;
13.03.2024;06:00;6372,000;
13.03.2024;04:00;6372,000;
13.03.2024;02:00;6372,000;
13.03.2024;00:00;6372,000;
12.03.2024;22:00;6372,000;
12.03.2024;20:00;6372,000;
12.03.2024;18:00;6372,000;
12.03.2024;16:00;6372,000;
12.03.2024;14:00;6372,000;
12.03.2024;12:00;6372,000;
12.03.2024;10:00;6372,000;
12.03.2024;08:00;6372,000;
12.03.2024;06:00;6372,000;
12.03.2024;04:00;6372,000;
12.03.2024;02:00;6372,000;
12.03.2024;00:00;6372,000;
11.03.2024;22:00;6372,000;
11.03.2024;20:00;6372,000;
11.03.2024;18:00;6372,000;
11.03.2024;16:00;6372,000;
11.03.2024;14:00;6372,000;
11.03.2024;12:00;6374,000;
11.03.2024;10:00;6376,000;
11.03.2024;08:00;6376,000;
11.03.2024;06:00;6376,000;
11.03.2024;04:00;6376,000;
11.03.2024;02:00;6376,000;
11.03.2024;00:00;6376,000;
10.03.2024;22:00;6376,000;
10.03.2024;20:00;6376,000;
10.03.2024;18:00;6376,000;
10.03.2024;16:00;6376,000;
10.03.2024;14:00;6376,000;
10.03.2024;12:00;6376,000;
10.03.2024;10:00;6376,000;
10.03.2024;08:00;6376,000;
10.03.2024;06:00;6376,000;
10.03.2024;04:00;6376,000;
10.03.2024;02:00;6376,000;
10.03.2024;00:00;6376,000;
09.03.2024;22:00;6376,000;
09.03.2024;20:00;6376,000;
09.03.2024;18:00;6376,000;
09.03.2024;16:00;6376,000;
09.03.2024;14:00;6376,000;
09.03.2024;12:00;6376,000;
09.03.2024;10:00;6376,000;
09.03.2024;08:00;6376,000;
09.03.2024;06:00;6376,000;
09.03.2024;04:00;6376,000;
09.03.2024;02:00;6376,000;
09.03.2024;00:00;6376,000;
08.03.2024;22:00;6376,000;
08.03.2024;20:00;6376,000;
08.03.2024;18:00;6376,000;
08.03.2024;16:00;6376,000;
08.03.2024;14:00;6376,000;
08.03.2024;12:00;6377,000;
08.03.2024;10:00;6382,000;
08.03.2024;08:00;6382,000;
08.03.2024;06:00;6382,000;
08.03.2024;04:00;6382,000;
08.03.2024;02:00;6382,000;
08.03.2024;00:00;6382,000;
07.03.2024;22:00;6382,000;
07.03.2024;20:00;6382,000;
07.03.2024;18:00;6382,000;
07.03.2024;16:00;6382,000;
07.03.2024;14:00;6382,000;
07.03.2024;12:00;6382,000;
07.03.2024;10:00;6382,000;
07.03.2024;08:00;6382,000;
07.03.2024;06:00;6382,000;
07.03.2024;04:00;6382,000;
07.03.2024;02:00;6382,000;
07.03.2024;00:00;6382,000;
06.03.2024;22:00;6382,000;
06.03.2024;20:00;6382,000;
06.03.2024;18:00;6382,000;
06.03.2024;16:00;6382,000;
06.03.2024;14:00;6382,000;
06.03.2024;12:00;6382,000;
06.03.2024;10:00;6382,000;
06.03.2024;08:00;6382,000;
06.03.2024;06:00;6382,000;
06.03.2024;04:00;6382,000;
06.03.2024;02:00;6382,000;
06.03.2024;00:00;6382,000;
05.03.2024;22:00;6382,000;
05.03.2024;20:00;6382,000;
05.03.2024;18:00;6382,000;
05.03.2024;16:00;6382,000;
05.03.2024;14:00;6382,000;
05.03.2024;12:00;6382,000;
05.03.2024;10:00;6382,000;
05.03.2024;08:00;6382,000;
05.03.2024;06:00;6382,000;
05.03.2024;04:00;6382,000;
05.03.2024;02:00;6382,000;
05.03.2024;00:00;6382,000;
04.03.2024;22:00;6382,000;
04.03.2024;20:00;6382,000;
04.03.2024;18:00;6382,000;
04.03.2024;16:00;6382,000;
04.03.2024;14:00;6382,000;
04.03.2024;12:00;6376,000;
04.03.2024;10:00;6376,000;
04.03.2024;08:00;6376,000;
04.03.2024;06:00;6376,000;
04.03.2024;04:00;6376,000;
04.03.2024;02:00;6376,000;
04.03.2024;00:00;6376,000;
03.03.2024;22:00;6376,000;
03.03.2024;20:00;6376,000;
03.03.2024;18:00;6376,000;
03.03.2024;16:00;6376,000;
03.03.2024;14:00;6376,000;
03.03.2024;12:00;6376,000;
03.03.2024;10:00;6376,000;
03.03.2024;08:00;6376,000;
03.03.2024;06:00;6376,000;
03.03.2024;04:00;6376,000;
03.03.2024;02:00;6376,000;
03.03.2024;00:00;6376,000;
02.03.2024;22:00;6376,000;
02.03.2024;20:00;6376,000;
02.03.2024;18:00;6376,000;
02.03.2024;16:00;6376,000;
02.03.2024;14:00;6376,000;
02.03.2024;12:00;6376,000;
02.03.2024;10:00;6376,000;
02.03.2024;08:00;6376,000;
02.03.2024;06:00;6376,000;
02.03.2024;04:00;6376,000;
02.03.2024;02:00;6376,000;
02.03.2024;00:00;6376,000;
01.03.2024;22:00;6376,000;
01.03.2024;20:00;6376,000;
01.03.2024;18:00;6376,000;
01.03.2024;16:00;6376,000;
01.03.2024;14:00;6376,000;
01.03.2024;12:00;6377,000;
01.03.2024;10:00;6386,000;
01.03.2024;08:00;6387,000;
01.03.2024;06:00;6387,000;
01.03.2024;04:00;6387,000;
01.03.2024;02:00;6387,000;
01.03.2024;00:00;6387,000;
29.02.2024;22:00;6387,000;
29.02.2024;20:00;6387,000;
29.02.2024;18:00;6387,000;
29.02.2024;16:00;6400,000;
29.02.2024;14:00;6400,000;
29.02.2024;12:00;6401,000;
29.02.2024;10:00;6401,000;
29.02.2024;08:00;6401,000;
29.02.2024;06:00;6401,000;
29.02.2024;04:00;6401,000;
29.02.2024;02:00;6401,000;
29.02.2024;00:00;6401,000;
28.02.2024;22:00;6401,000;
28.02.2024;20:00;6401,000;
28.02.2024;18:00;6401,000;
28.02.2024;16:00;6401,000;
28.02.2024;14:00;6401,000;
28.02.2024;12:00;6401,000;
28.02.2024;10:00;6402,000;
28.02.2024;08:00;6402,000;
28.02.2024;06:00;6402,000;
28.02.2024;04:00;6402,000;
28.02.2024;02:00;6402,000;
28.02.2024;00:00;6402,000;
27.02.2024;22:00;6402,000;
27.02.2024;20:00;6402,000;
27.02.2024;18:00;6402,000;
27.02.2024;16:00;6402,000;
27.02.2024;14:00;6402,000;
27.02.2024;12:00;6402,000;
27.02.2024;10:00;6403,000;
27.02.2024;08:00;6403,000;
27.02.2024;06:00;6403,000;
27.02.2024;04:00;6403,000;
27.02.2024;02:00;6403,000;
27.02.2024;00:00;6403,000;
26.02.2024;22:00;6403,000;
26.02.2024;20:00;6403,000;
26.02.2024;18:00;6403,000;
26.02.2024;16:00;6403,000;
26.02.2024;14:00;6403,000;
26.02.2024;12:00;6403,000;
26.02.2024;10:00;6404,000;
26.02.2024;08:00;6403,000;
26.02.2024;06:00;6404,000;
26.02.2024;04:00;6404,000;
26.02.2024;02:00;6404,000;
26.02.2024;00:00;6404,000;
25.02.2024;22:00;6404,000;
25.02.2024;20:00;6404,000;
25.02.2024;18:00;6404,000;
25.02.2024;16:00;6404,000;
25.02.2024;14:00;6404,000;
25.02.2024;12:00;6395,000;
25.02.2024;10:00;6395,000;
25.02.2024;08:00;6395,000;
25.02.2024;06:00;6395,000;
25.02.2024;04:00;6395,000;
25.02.2024;02:00;6395,000;
25.02.2024;00:00;6395,000;
24.02.2024;22:00;6395,000;
24.02.2024;20:00;6395,000;
24.02.2024;18:00;6395,000;
24.02.2024;16:00;6395,000;
24.02.2024;14:00;6395,000;
24.02.2024;12:00;6395,000;
24.02.2024;10:00;6389,000;
24.02.2024;08:00;6389,000;
24.02.2024;06:00;6389,000;
24.02.2024;04:00;6389,000;
24.02.2024;02:00;6389,000;
24.02.2024;00:00;6389,000;
23.02.2024;22:00;6389,000;
23.02.2024;20:00;6389,000;
23.02.2024;18:00;6389,000;
23.02.2024;16:00;6389,000;
23.02.2024;14:00;6389,000;
23.02.2024;12:00;6389,000;
23.02.2024;10:00;6366,000;
23.02.2024;08:00;6366,000;
23.02.2024;06:00;6366,000;
23.02.2024;04:00;6366,000;
23.02.2024;02:00;6366,000;
23.02.2024;00:00;6366,000;
22.02.2024;22:00;6366,000;
22.02.2024;20:00;6366,000;
22.02.2024;18:00;6366,000;
22.02.2024;16:00;6366,000;
22.02.2024;14:00;6366,000;
22.02.2024;12:00;6366,000;
22.02.2024;10:00;6358,000;
22.02.2024;08:00;6358,000;
22.02.2024;06:00;6358,000;
22.02.2024;04:00;6358,000;
22.02.2024;02:00;6358,000;
22.02.2024;00:00;6358,000;
21.02.2024;22:00;6358,000;
21.02.2024;20:00;6349,000;
21.02.2024;18:00;6349,000;
21.02.2024;16:00;6349,000;
21.02.2024;14:00;6349,000;
21.02.2024;12:00;6349,000;
21.02.2024;10:00;6349,000;
21.02.2024;08:00;6349,000;
21.02.2024;06:00;6349,000;
21.02.2024;04:00;6349,000;
21.02.2024;02:00;6349,000;
21.02.2024;00:00;6349,000;
20.02.2024;22:00;6349,000;
20.02.2024;20:00;6349,000;
20.02.2024;18:00;6349,000;
20.02.2024;16:00;6349,000;
20.02.2024;14:00;6349,000;
20.02.2024;12:00;6349,000;
20.02.2024;10:00;6349,000;
20.02.2024;08:00;6349,000;
20.02.2024;06:00;6349,000;
20.02.2024;04:00;6349,000;
20.02.2024;02:00;6349,000;
20.02.2024;00:00;6349,000;
19.02.2024;22:00;6349,000;
19.02.2024;20:00;6349,000;
19.02.2024;18:00;6349,000;
19.02.2024;16:00;6349,000;
19.02.2024;14:00;6349,000;
19.02.2024;12:00;6349,000;
19.02.2024;10:00;6349,000;
19.02.2024;08:00;6349,000;
19.02.2024;06:00;6349,000;
19.02.2024;04:00;6349,000;
19.02.2024;02:00;6349,000;
19.02.2024;00:00;6349,000;
18.02.2024;22:00;6349,000;
18.02.2024;20:00;6349,000;
18.02.2024;18:00;6349,000;
18.02.2024;16:00;6349,000;
18.02.2024;14:00;6349,000;
18.02.2024;12:00;6349,000;
18.02.2024;10:00;6349,000;
18.02.2024;08:00;6349,000;
18.02.2024;06:00;6349,000;
18.02.2024;04:00;6349,000;
18.02.2024;02:00;6349,000;
18.02.2024;00:00;6349,000;
17.02.2024;22:00;6349,000;
17.02.2024;20:00;6349,000;
17.02.2024;18:00;6349,000;
17.02.2024;16:00;6349,000;
17.02.2024;14:00;6349,000;
17.02.2024;12:00;6349,000;
17.02.2024;10:00;6349,000;
17.02.2024;08:00;6349,000;
17.02.2024;06:00;6349,000;
17.02.2024;04:00;6349,000;
17.02.2024;02:00;6349,000;
17.02.2024;00:00;6349,000;
16.02.2024;22:00;6349,000;
16.02.2024;20:00;6349,000;
16.02.2024;18:00;6349,000;
16.02.2024;16:00;6349,000;
16.02.2024;14:00;6348,000;
16.02.2024;12:00;6348,000;
16.02.2024;10:00;6348,000;
16.02.2024;08:00;6349,000;
16.02.2024;06:00;6348,000;
16.02.2024;04:00;6348,000;
16.02.2024;02:00;6348,000;
16.02.2024;00:00;6349,000;
15.02.2024;22:00;6348,000;
15.02.2024;20:00;6348,000;
15.02.2024;18:00;6348,000;
15.02.2024;16:00;6349,000;
15.02.2024;14:00;6349,000;
15.02.2024;12:00;6349,000;
15.02.2024;10:00;6348,000;
15.02.2024;08:00;6349,000;
15.02.2024;06:00;6348,000;
15.02.2024;04:00;6349,000;
15.02.2024;02:00;6349,000;
15.02.2024;00:00;6348,000;
14.02.2024;22:00;6348,000;
14.02.2024;20:00;6348,000;
14.02.2024;18:00;6349,000;
14.02.2024;16:00;6349,000;
14.02.2024;14:00;6349,000;
14.02.2024;12:00;6348,000;
14.02.2024;10:00;6348,000;
14.02.2024;08:00;6349,000;
14.02.2024;06:00;6348,000;
14.02.2024;04:00;6348,000;
14.02.2024;02:00;6348,000;
14.02.2024;00:00;6348,000;
13.02.2024;22:00;6348,000;
13.02.2024;20:00;6348,000;
13.02.2024;18:00;6348,000;
13.02.2024;16:00;6348,000;
13.02.2024;14:00;6348,000;
13.02.2024;12:00;6348,000;
13.02.2024;10:00;6348,000;
13.02.2024;08:00;6348,000;
13.02.2024;06:00;6348,000;
13.02.2024;04:00;6348,000;
13.02.2024;02:00;6348,000;
13.02.2024;00:00;6348,000;
12.02.2024;22:00;6348,000;
12.02.2024;20:00;6348,000;
12.02.2024;18:00;6348,000;
12.02.2024;16:00;6349,000;
12.02.2024;14:00;6348,000;
12.02.2024;12:00;6348,000;
12.02.2024;10:00;6348,000;
12.02.2024;08:00;6348,000;
12.02.2024;06:00;6348,000;
12.02.2024;04:00;6348,000;
12.02.2024;02:00;6349,000;
12.02.2024;00:00;6348,000;
11.02.2024;22:00;6348,000;
11.02.2024;20:00;6348,000;
11.02.2024;18:00;6348,000;
11.02.2024;16:00;6348,000;
11.02.2024;14:00;6348,000;
11.02.2024;12:00;6348,000;
11.02.2024;10:00;6348,000;
11.02.2024;08:00;6348,000;
11.02.2024;06:00;6348,000;
11.02.2024;04:00;6348,000;
11.02.2024;02:00;6348,000;
11.02.2024;00:00;6349,000;
10.02.2024;22:00;6348,000;
10.02.2024;20:00;6349,000;
10.02.2024;18:00;6348,000;
10.02.2024;16:00;6348,000;
10.02.2024;14:00;6348,000;
10.02.2024;12:00;6348,000;
10.02.2024;10:00;6349,000;
10.02.2024;08:00;6348,000;
10.02.2024;06:00;6348,000;
10.02.2024;04:00;6348,000;
10.02.2024;02:00;6348,000;
10.02.2024;00:00;6349,000;
09.02.2024;22:00;6349,000;
09.02.2024;20:00;6349,000;
09.02.2024;18:00;6348,000;
09.02.2024;16:00;6348,000;
09.02.2024;14:00;6349,000;
09.02.2024;12:00;6348,000;
09.02.2024;10:00;6349,000;
09.02.2024;08:00;6348,000;
09.02.2024;06:00;6349,000;
09.02.2024;04:00;6348,000;
09.02.2024;02:00;6348,000;
09.02.2024;00:00;6349,000;
08.02.2024;22:00;6348,000;
08.02.2024;20:00;6349,000;
08.02.2024;18:00;6348,000;
08.02.2024;16:00;6349,000;
08.02.2024;14:00;6349,000;
08.02.2024;12:00;6348,000;
08.02.2024;10:00;6349,000;
08.02.2024;08:00;6349,000;
08.02.2024;06:00;6349,000;
08.02.2024;04:00;6349,000;
08.02.2024;02:00;6349,000;
08.02.2024;00:00;6349,000;
07.02.2024;22:00;6349,000;
07.02.2024;20:00;6348,000;
07.02.2024;18:00;6348,000;
07.02.2024;16:00;6348,000;
07.02.2024;14:00;6348,000;
07.02.2024;12:00;6348,000;
07.02.2024;10:00;6349,000;
07.02.2024;08:00;6349,000;
07.02.2024;06:00;6349,000;
07.02.2024;04:00;6349,000;
07.02.2024;02:00;6349,000;
07.02.2024;00:00;6348,000;
06.02.2024;22:00;6348,000;
06.02.2024;20:00;6348,000;
06.02.2024;18:00;6348,000;
06.02.2024;16:00;6349,000;
06.02.2024;14:00;6348,000;
06.02.2024;12:00;6348,000;
06.02.2024;10:00;6349,000;
06.02.2024;08:00;6348,000;
06.02.2024;06:00;6348,000;
06.02.2024;04:00;6349,000;
06.02.2024;02:00;6348,000;
06.02.2024;00:00;6348,000;
05.02.2024;22:00;6348,000;
05.02.2024;20:00;6348,000;
05.02.2024;18:00;6348,000;
05.02.2024;16:00;6348,000;
05.02.2024;14:00;6348,000;
05.02.2024;12:00;6348,000;
05.02.2024;10:00;6348,000;
05.02.2024;08:00;6348,000;
05.02.2024;06:00;6348,000;
05.02.2024;04:00;6348,000;
05.02.2024;02:00;6348,000;
05.02.2024;00:00;6348,000;
04.02.2024;22:00;6348,000;
04.02.2024;20:00;6348,000;
04.02.2024;18:00;6348,000;
04.02.2024;16:00;6348,000;
04.02.2024;14:00;6348,000;
04.02.2024;12:00;6348,000;
04.02.2024;10:00;6348,000;
04.02.2024;08:00;6348,000;
04.02.2024;06:00;6348,000;
04.02.2024;04:00;6348,000;
04.02.2024;02:00;6348,000;
04.02.2024;00:00;6348,000;
03.02.2024;22:00;6348,000;
03.02.2024;20:00;6348,000;
03.02.2024;18:00;6348,000;
03.02.2024;16:00;6348,000;
03.02.2024;14:00;6348,000;
03.02.2024;12:00;6348,000;
03.02.2024;10:00;6348,000;
03.02.2024;08:00;6348,000;
03.02.2024;06:00;6348,000;
03.02.2024;04:00;6348,000;
03.02.2024;02:00;6348,000;
03.02.2024;00:00;6348,000;
02.02.2024;22:00;6348,000;
02.02.2024;20:00;6348,000;
02.02.2024;18:00;6348,000;
02.02.2024;16:00;6348,000;
02.02.2024;14:00;6348,000;
02.02.2024;12:00;6348,000;
02.02.2024;10:00;6348,000;
02.02.2024;08:00;6348,000;
02.02.2024;06:00;6348,000;
02.02.2024;04:00;6348,000;
02.02.2024;02:00;6348,000;
02.02.2024;00:00;6348,000;
01.02.2024;22:00;6348,000;
01.02.2024;20:00;6348,000;
01.02.2024;18:00;6348,000;
01.02.2024;16:00;6348,000;
01.02.2024;14:00;6348,000;
01.02.2024;12:00;6348,000;
01.02.2024;10:00;6348,000;
01.02.2024;08:00;6348,000;
01.02.2024;06:00;6348,000;
01.02.2024;04:00;6348,000;
01.02.2024;02:00;6348,000;
01.02.2024;00:00;6348,000;
31.01.2024;22:00;6348,000;
31.01.2024;20:00;6348,000;
31.01.2024;18:00;6348,000;
31.01.2024;16:00;6348,000;
31.01.2024;14:00;6348,000;
31.01.2024;12:00;6348,000;
31.01.2024;10:00;6348,000;
31.01.2024;08:00;6348,000;
31.01.2024;06:00;6348,000;
31.01.2024;04:00;6348,000;
31.01.2024;02:00;6348,000;
31.01.2024;00:00;6348,000;
30.01.2024;22:00;6348,000;
30.01.2024;20:00;6348,000;
30.01.2024;18:00;6348,000;
30.01.2024;16:00;6348,000;
30.01.2024;14:00;6348,000;
30.01.2024;12:00;6348,000;
30.01.2024;10:00;6348,000;
30.01.2024;08:00;6348,000;
30.01.2024;06:00;6348,000;
30.01.2024;04:00;6348,000;
30.01.2024;02:00;6348,000;
30.01.2024;00:00;6348,000;
29.01.2024;22:00;6348,000;
29.01.2024;20:00;6348,000;
29.01.2024;18:00;6348,000;
29.01.2024;16:00;6348,000;
29.01.2024;14:00;6348,000;
29.01.2024;12:00;6348,000;
29.01.2024;10:00;6348,000;
29.01.2024;08:00;6348,000;
29.01.2024;06:00;6348,000;
29.01.2024;04:00;6348,000;
29.01.2024;02:00;6348,000;
29.01.2024;00:00;6348,000;
28.01.2024;22:00;6348,000;
